TimeEDT,TemperatureF,Dew PointF,Humidity,Sea Level PressureIn,VisibilityMPH,Wind Direction,Wind SpeedMPH,Gust SpeedMPH,PrecipitationIn,Events,Conditions,WindDirDegrees,DateUTC
12:15 AM,64.0,62.6,95,30.10,10.0,SSE,4.6,-,N/A,,Clear,150,2013-10-02 04:15:00
12:35 AM,63.1,62.2,97,30.10,10.0,Calm,Calm,-,N/A,,Clear,0,2013-10-02 04:35:00
12:55 AM,63.5,61.9,94,30.10,10.0,Calm,Calm,-,N/A,,Clear,0,2013-10-02 04:55:00
1:15 AM,63.3,61.7,94,30.10,10.0,South,3.5,-,N/A,,Clear,170,2013-10-02 05:15:00
1:35 AM,62.6,61.2,95,30.10,10.0,Calm,Calm,-,N/A,,Clear,0,2013-10-02 05:35:00
1:55 AM,62.6,61.2,95,30.10,10.0,Calm,Calm,-,N/A,,Clear,0,2013-10-02 05:55:00
2:15 AM,62.2,61.0,96,30.10,10.0,Calm,Calm,-,N/A,,Clear,0,2013-10-02 06:15:00
2:35 AM,61.9,60.8,96,30.10,10.0,Calm,Calm,-,N/A,,Clear,0,2013-10-02 06:35:00
2:55 AM,62.1,60.8,96,30.10,10.0,Calm,Calm,-,N/A,,Clear,0,2013-10-02 06:55:00
3:15 AM,61.2,60.1,96,30.09,10.0,Calm,Calm,-,N/A,,Clear,0,2013-10-02 07:15:00
3:35 AM,61.0,60.1,97,30.09,7.0,Calm,Calm,-,N/A,,Clear,0,2013-10-02 07:35:00
3:55 AM,61.0,60.1,97,30.09,7.0,Calm,Calm,-,N/A,,Clear,0,2013-10-02 07:55:00
4:15 AM,59.9,59.4,98,30.09,10.0,Calm,Calm,-,N/A,,Clear,0,2013-10-02 08:15:00
4:35 AM,59.0,58.5,98,30.08,7.0,Calm,Calm,-,N/A,,Clear,0,2013-10-02 08:35:00
4:55 AM,59.4,59.0,99,30.08,7.0,Calm,Calm,-,N/A,,Clear,0,2013-10-02 08:55:00
5:15 AM,58.5,58.1,99,30.08,7.0,Calm,Calm,-,N/A,,Clear,0,2013-10-02 09:15:00
5:35 AM,58.3,58.1,99,30.09,7.0,Calm,Calm,-,N/A,,Clear,0,2013-10-02 09:35:00
5:55 AM,58.5,58.3,99,30.09,7.0,Calm,Calm,-,N/A,,Clear,0,2013-10-02 09:55:00
6:15 AM,58.3,58.1,99,30.10,10.0,Calm,Calm,-,N/A,,Clear,0,2013-10-02 10:15:00
6:35 AM,57.6,57.2,99,30.10,7.0,Calm,Calm,-,N/A,,Clear,0,2013-10-02 10:35:00
6:55 AM,57.7,57.7,100,30.10,2.5,Calm,Calm,-,N/A,,Scattered Clouds,0,2013-10-02 10:55:00
7:15 AM,58.1,58.1,100,30.11,5.0,Calm,Calm,-,N/A,,Clear,0,2013-10-02 11:15:00
7:35 AM,58.3,58.3,100,30.11,5.0,Calm,Calm,-,N/A,,Clear,0,2013-10-02 11:35:00
7:55 AM,58.6,58.6,100,30.12,5.0,Calm,Calm,-,N/A,,Clear,0,2013-10-02 11:55:00
8:15 AM,59.9,59.4,98,30.12,7.0,Calm,Calm,-,N/A,,Clear,0,2013-10-02 12:15:00
8:35 AM,61.9,59.9,93,30.12,7.0,Calm,Calm,-,N/A,,Clear,0,2013-10-02 12:35:00
8:55 AM,62.8,61.0,94,30.13,10.0,Calm,Calm,-,N/A,,Clear,0,2013-10-02 12:55:00
9:15 AM,64.8,59.7,84,30.14,10.0,Calm,Calm,-,N/A,,Clear,0,2013-10-02 13:15:00
9:35 AM,66.7,59.7,78,30.14,10.0,Calm,Calm,-,N/A,,Clear,0,2013-10-02 13:35:00
9:55 AM,68.4,60.1,75,30.14,10.0,Calm,Calm,-,N/A,,Clear,0,2013-10-02 13:55:00
10:15 AM,70.7,60.6,70,30.14,10.0,Calm,Calm,-,N/A,,Clear,0,2013-10-02 14:15:00
10:35 AM,72.3,60.8,67,30.14,10.0,Calm,Calm,-,N/A,,Clear,0,2013-10-02 14:35:00
10:55 AM,73.6,60.8,64,30.14,10.0,Calm,Calm,-,N/A,,Clear,0,2013-10-02 14:55:00
11:15 AM,76.1,61.2,60,30.13,10.0,Calm,Calm,-,N/A,,Clear,0,2013-10-02 15:15:00
11:35 AM,77.7,61.0,56,30.13,10.0,Calm,Calm,-,N/A,,Clear,0,2013-10-02 15:35:00
11:55 AM,79.2,60.6,53,30.13,10.0,Calm,Calm,-,N/A,,Clear,0,2013-10-02 15:55:00
12:15 PM,79.9,60.3,51,30.12,10.0,Calm,Calm,-,N/A,,Clear,0,2013-10-02 16:15:00
12:35 PM,81.3,57.9,45,30.12,10.0,WNW,3.5,-,N/A,,Clear,300,2013-10-02 16:35:00
12:55 PM,82.0,56.3,41,30.12,10.0,NNW,3.5,-,N/A,,Clear,330,2013-10-02 16:55:00
1:15 PM,82.8,58.6,44,30.11,10.0,Calm,Calm,-,N/A,,Clear,0,2013-10-02 17:15:00
1:35 PM,82.8,57.7,42,30.10,10.0,Calm,Calm,-,N/A,,Clear,0,2013-10-02 17:35:00
1:55 PM,83.7,56.1,39,30.09,10.0,NW,4.6,-,N/A,,Clear,320,2013-10-02 17:55:00
2:15 PM,83.3,55.6,39,30.08,10.0,Calm,Calm,-,N/A,,Clear,0,2013-10-02 18:15:00
2:35 PM,83.7,54.0,36,30.08,10.0,West,3.5,-,N/A,,Scattered Clouds,280,2013-10-02 18:35:00
2:55 PM,84.4,52.7,33,30.07,10.0,NNW,3.5,-,N/A,,Clear,330,2013-10-02 18:55:00
3:15 PM,83.7,53.8,36,30.07,10.0,Calm,Calm,-,N/A,,Clear,0,2013-10-02 19:15:00
3:35 PM,83.7,55.0,37,30.07,10.0,Calm,Calm,-,N/A,,Clear,0,2013-10-02 19:35:00
3:55 PM,83.8,56.1,39,30.06,10.0,Calm,Calm,-,N/A,,Clear,0,2013-10-02 19:55:00
4:15 PM,82.0,57.2,43,30.06,10.0,Calm,Calm,-,N/A,,Scattered Clouds,0,2013-10-02 20:15:00
4:35 PM,83.7,56.1,39,30.06,10.0,Calm,Calm,-,N/A,,Clear,0,2013-10-02 20:35:00
4:55 PM,83.5,56.5,40,30.06,10.0,NW,3.5,-,N/A,,Clear,310,2013-10-02 20:55:00
5:15 PM,83.1,56.7,40,30.06,10.0,Calm,Calm,-,N/A,,Clear,0,2013-10-02 21:15:00
5:35 PM,82.8,57.9,43,30.06,10.0,Calm,Calm,-,N/A,,Clear,0,2013-10-02 21:35:00
5:55 PM,81.9,57.9,44,30.07,10.0,Calm,Calm,-,N/A,,Clear,0,2013-10-02 21:55:00
6:15 PM,80.6,59.7,49,30.07,10.0,Calm,Calm,-,N/A,,Clear,0,2013-10-02 22:15:00
6:35 PM,78.8,61.3,55,30.07,10.0,Calm,Calm,-,N/A,,Clear,0,2013-10-02 22:35:00
6:55 PM,76.6,62.6,62,30.07,10.0,Calm,Calm,-,N/A,,Clear,0,2013-10-02 22:55:00
7:15 PM,74.7,63.5,68,30.08,10.0,Calm,Calm,-,N/A,,Clear,0,2013-10-02 23:15:00
7:35 PM,74.1,62.2,66,30.08,10.0,Calm,Calm,-,N/A,,Clear,0,2013-10-02 23:35:00
7:55 PM,72.7,63.5,73,30.08,10.0,Calm,Calm,-,N/A,,Clear,0,2013-10-02 23:55:00
8:15 PM,70.7,63.5,78,30.09,10.0,Calm,Calm,-,N/A,,Clear,0,2013-10-03 00:15:00
8:35 PM,68.9,63.5,83,30.09,10.0,Calm,Calm,-,N/A,,Clear,0,2013-10-03 00:35:00
8:55 PM,69.1,62.8,80,30.10,10.0,Calm,Calm,-,N/A,,Clear,0,2013-10-03 00:55:00
9:15 PM,67.3,64.2,90,30.10,10.0,Calm,Calm,-,N/A,,Clear,0,2013-10-03 01:15:00
9:35 PM,66.6,64.8,94,30.10,10.0,Calm,Calm,-,N/A,,Clear,0,2013-10-03 01:35:00
9:55 PM,67.5,64.9,92,30.10,10.0,Calm,Calm,-,N/A,,Clear,0,2013-10-03 01:55:00
10:15 PM,66.4,64.6,94,30.11,10.0,Calm,Calm,-,N/A,,Clear,0,2013-10-03 02:15:00
10:35 PM,66.9,64.9,93,30.11,10.0,Calm,Calm,-,N/A,,Clear,0,2013-10-03 02:35:00
10:55 PM,66.2,64.6,94,30.11,10.0,Calm,Calm,-,N/A,,Clear,0,2013-10-03 02:55:00
11:15 PM,65.7,63.7,93,30.12,10.0,Calm,Calm,-,N/A,,Clear,0,2013-10-03 03:15:00
11:35 PM,64.8,63.9,97,30.12,10.0,South,3.5,-,N/A,,Clear,170,2013-10-03 03:35:00
11:55 PM,65.7,64.6,96,30.12,10.0,South,3.5,-,N/A,,Clear,170,2013-10-03 03:55:00